This is the latest recevied weather packets stored in our database for station/object IT9CNT. If no packets are shown the sender has not sent any weather packets the latest 1 day(s).
| Time | Temp. | Humidity | Pressure | Rain* | Wind** | Luminosity | Snow |
|---|---|---|---|---|---|---|---|
| 1778013603 | 16.67° C | 71% | 1012.8 hPa | 0 mm | 2.68 m/s, 97° | - | - |
| 1778013543 | 16.67° C | 71% | 1013.1 hPa | 0 mm | 3.13 m/s, 99° | - | - |
| 1778013483 | 16.67° C | 70% | 1013 hPa | 0 mm | 2.68 m/s, 99° | - | - |
| 1778013423 | 16.67° C | 70% | 1013.1 hPa | 0 mm | 2.68 m/s, 98° | - | - |
| 1778013363 | 16.67° C | 70% | 1013 hPa | 0 mm | 2.68 m/s, 97° | - | - |
| 1778013303 | 16.67° C | 70% | 1013.2 hPa | 0 mm | 2.68 m/s, 99° | - | - |
| 1778013243 | 16.67° C | 70% | 1013.2 hPa | 0 mm | 2.68 m/s, 99° | - | - |
| 1778013183 | 16.67° C | 70% | 1013.1 hPa | 0 mm | 2.68 m/s, 97° | - | - |
| 1778013123 | 16.67° C | 70% | 1013 hPa | 0 mm | 2.68 m/s, 97° | - | - |
| 1778013063 | 16.67° C | 70% | 1012.9 hPa | 0 mm | 2.68 m/s, 97° | - | - |
| 1778013003 | 16.67° C | 70% | 1013.1 hPa | 0 mm | 2.68 m/s, 93° | - | - |
| 1778012943 | 16.67° C | 70% | 1012.9 hPa | 0 mm | 2.68 m/s, 89° | - | - |
| 1778012883 | 16.67° C | 70% | 1013.4 hPa | 0 mm | 2.68 m/s, 89° | - | - |
| 1778012823 | 16.67° C | 70% | 1013 hPa | 0 mm | 2.68 m/s, 87° | - | - |
| 1778012763 | 16.67° C | 70% | 1013.1 hPa | 0 mm | 2.68 m/s, 91° | - | - |
| 1778012703 | 16.67° C | 70% | 1013.2 hPa | 0 mm | 2.24 m/s, 88° | - | - |
| 1778012643 | 16.67° C | 69% | 1013.2 hPa | 0 mm | 2.24 m/s, 86° | - | - |
| 1778012583 | 16.67° C | 69% | 1013.3 hPa | 0 mm | 2.24 m/s, 86° | - | - |
| 1778012523 | 16.67° C | 69% | 1013.1 hPa | 0 mm | 2.24 m/s, 86° | - | - |
| 1778012463 | 16.67° C | 69% | 1013 hPa | 0 mm | 2.24 m/s, 83° | - | - |
| 1778012403 | 16.67° C | 69% | 1013 hPa | 0 mm | 2.24 m/s, 82° | - | - |
| 1778012343 | 16.67° C | 68% | 1013.2 hPa | 0 mm | 2.24 m/s, 82° | - | - |
| 1778012283 | 16.67° C | 68% | 1013 hPa | 0 mm | 2.68 m/s, 84° | - | - |
| 1778012223 | 16.67° C | 68% | 1013.2 hPa | 0 mm | 2.68 m/s, 87° | - | - |
| 1778012163 | 16.67° C | 68% | 1013.2 hPa | 0 mm | 2.68 m/s, 81° | - | - |
* Rain latest hour (hover to see other rain measurements)
** Current wind speed in m/s (hover to see current wind gust speed)